H1 CPF 2 NER 2024 1 6 9 006 01 glonass129 H2 1106402 9129 37868 2024 1 6 0 0 0 2024 1 9 23 45 0 900 1 1 0 0 0 1 H9 10 0 60315 0.00000 0 -23914080.347 -3072627.963 -8201334.194 10 0 60315 900.00000 0 -22707021.434 -3010922.941 -11124973.956 10 0 60315 1800.00000 0 -21154507.458 -3084672.003 -13831393.183 10 0 60315 2700.00000 0 -19300658.706 -3335249.154 -16267698.731 10 0 60315 3600.00000 0 -17199084.169 -3794914.260 -18386288.187 10 0 60315 4500.00000 0 -14910749.954 -4485214.522 -20145795.800 10 0 60315 5400.00000 0 -12501552.281 -5415851.286 -21511911.643 10 0 60315 6300.00000 0 -10039698.430 -6584061.687 -22458057.135 10 0 60315 7200.00000 0 -7593006.991 -7974542.196 -22965903.301 10 0 60315 8100.00000 0 -5226241.848 -9559917.581 -23025721.852 10 0 60315 9000.00000 0 -2998592.332 -11301735.240 -22636562.850 10 0 60315 9900.00000 0 -961405.188 -13151942.255 -21806256.523 10 0 60315 10800.00000 0 843737.347 -15054782.029 -20551240.539 10 0 60315 11700.00000 0 2386514.417 -16949029.627 -18896217.577 10 0 60315 12600.00000 0 3648877.848 -18770470.880 -16873651.518 10 0 60315 13500.00000 0 4625538.390 -20454520.364 -14523113.632 10 0 60315 14400.00000 0 5323909.786 -21938868.009 -11890493.010 10 0 60315 15300.00000 0 5763516.470 -23166043.326 -9027087.982 10 0 60315 16200.00000 0 5974893.220 -24085790.312 -5988597.308 10 0 60315 17100.00000 0 5998026.146 -24657154.525 -2834031.623 10 0 60315 18000.00000 0 5880403.207 -24850196.296 375433.175 10 0 60315 18900.00000 0 5674758.307 -24647260.060 3577638.160 10 0 60315 19800.00000 0 5436605.135 -24043748.544 6710636.566 10 0 60315 20700.00000 0 5221665.073 -23048371.201 9713879.384 10 0 60315 21600.00000 0 5083297.157 -21682857.998 12529369.451 10 0 60315 22500.00000 0 5070037.455 -19981151.597 15102763.143 10 0 60315 23400.00000 0 5223350.146 -17988111.928 17384399.964 10 0 60315 24300.00000 0 5575683.570 -15757786.945 19330242.018 10 0 60315 25200.00000 0 6148911.714 -13351320.710 20902707.215 10 0 60315 26100.00000 0 6953225.773 -10834583.998 22071381.738 10 0 60315 27000.00000 0 7986522.146 -8275623.778 22813599.573 10 0 60315 27900.00000 0 9234313.089 -5742034.972 23114878.918 10 0 60315 28800.00000 0 10670165.236 -3298360.987 22969207.518 10 0 60315 29700.00000 0 12256649.763 -1003628.513 22379171.264 10 0 60315 30600.00000 0 13946767.253 1090883.138 21355922.746 10 0 60315 31500.00000 0 15685790.713 2943546.886 19918988.910 10 0 60315 32400.00000 0 17413452.818 4523888.527 18095919.637 10 0 60315 33300.00000 0 19066388.695 5813620.729 15921781.683 10 0 60315 34200.00000 0 20580734.204 6807166.675 13438505.380 10 0 60315 35100.00000 0 21894772.288 7511650.432 10694094.381 10 0 60315 36000.00000 0 22951516.834 7946353.162 7741711.682 10 0 60315 36900.00000 0 23701124.977 8141656.713 4638658.124 10 0 60315 37800.00000 0 24103034.985 8137517.996 1445262.301 10 0 60315 38700.00000 0 24127737.545 7981537.933 -1776296.797 10 0 60315 39600.00000 0 23758103.158 7726706.609 -4963210.881 10 0 60315 40500.00000 0 22990206.878 7428920.810 -8053282.271 10 0 60315 41400.00000 0 21833612.927 7144380.555 -10986156.715 10 0 60315 42300.00000 0 20311104.950 6926977.020 -13704522.992 10 0 60315 43200.00000 0 18457871.655 6825785.050 -16155253.663 10 0 60315 44100.00000 0 16320181.269 6882769.162 -18290462.608 10 0 60315 45000.00000 0 13953600.508 7130802.789 -20068456.759 10 0 60315 45900.00000 0 11420833.485 7592086.842 -21454562.017 10 0 60315 46800.00000 0 8789272.325 8277036.216 -22421806.243 10 0 60315 47700.00000 0 6128363.523 9183682.365 -22951445.581 10 0 60315 48600.00000 0 3506901.645 10297617.578 -23033323.947 10 0 60315 49500.00000 0 990364.589 11592483.069 -22666059.321 10 0 60315 50400.00000 0 -1361597.660 13030979.508 -21857054.183 10 0 60315 51300.00000 0 -3497416.009 14566356.295 -20622331.239 10 0 60315 52200.00000 0 -5375503.831 16144315.514 -18986199.127 10 0 60315 53100.00000 0 -6965729.363 17705249.113 -16980756.235 10 0 60315 54000.00000 0 -8250399.839 19186714.055 -14645243.895 10 0 60315 54900.00000 0 -9224719.221 20526040.528 -12025263.044 10 0 60315 55800.00000 0 -9896703.718 21662963.189 -9171870.989 10 0 60315 56700.00000 0 -10286562.161 22542164.999 -6140576.981 10 0 60315 57600.00000 0 -10425570.615 23115627.382 -2990256.982 10 0 60315 58500.00000 0 -10354491.504 23344689.128 217990.695 10 0 60315 59400.00000 0 -10121606.110 23201728.977 3422026.481 10 0 60315 60300.00000 0 -9780444.985 22671403.028 6559864.704 10 0 60315 61200.00000 0 -9387312.642 21751386.726 9570860.225 10 0 60315 62100.00000 0 -8998710.813 20452591.791 12396864.596 10 0 60315 63000.00000 0 -8668768.123 18798850.100 14983330.778 10 0 60315 63900.00000 0 -8446783.165 16826078.144 17280346.655 10 0 60315 64800.00000 0 -8374982.885 14580956.889 19243579.287 10 0 60315 65700.00000 0 -8486588.956 12119181.083 20835113.563 10 0 60315 66600.00000 0 -8804272.096 9503349.325 22024170.802 10 0 60315 67500.00000 0 -9339058.379 6800580.437 22787694.949 10 0 60315 68400.00000 0 -10089733.319 4079952.436 23110796.095 10 0 60315 69300.00000 0 -11042769.356 1409867.669 22987043.283 10 0 60315 70200.00000 0 -12172781.287 -1144549.301 22418600.796 10 0 60315 71100.00000 0 -13443492.742 -3523915.524 21416204.546 10 0 60315 72000.00000 0 -14809175.919 -5676814.808 19998977.593 10 0 60315 72900.00000 0 -16216507.206 -7561692.931 18194086.432 10 0 60315 73800.00000 0 -17606763.811 -9148344.602 16036242.435 10 0 60315 74700.00000 0 -18918271.734 -10418929.916 13567055.629 10 0 60315 75600.00000 0 -20089004.141 -11368477.085 10834250.974 10 0 60315 76500.00000 0 -21059221.920 -12004849.180 7890760.215 10 0 60315 77400.00000 0 -21774045.258 -12348174.889 4793705.360 10 0 60315 78300.00000 0 -22185846.949 -12429765.960 1603292.544 10 0 60315 79200.00000 0 -22256364.662 -12290566.026 -1618362.468 10 0 60315 80100.00000 0 -21958440.527 -11979195.889 -4808453.764 10 0 60315 81000.00000 0 -21277311.739 -11549678.224 -7904724.840 10 0 60315 81900.00000 0 -20211394.754 -11058938.983 -10846702.388 10 0 60315 82800.00000 0 -18772527.282 -10564193.009 -13576898.158 10 0 60315 83700.00000 0 -16985655.705 -10120326.757 -16041953.219 10 0 60315 84600.00000 0 -14887979.579 -9777391.447 -18193700.168 10 0 60315 85500.00000 0 -12527588.500 -9578315.313 -19990120.596 10 0 60316 0.00000 0 -9961648.886 -9556933.959 -21396177.542 10 0 60316 900.00000 0 -7254216.007 -9736424.020 -22384506.380 10 0 60316 1800.00000 0 -4473767.467 -10128207.451 -22935948.396 10 0 60316 2700.00000 0 -1690558.069 -10731373.197 -23039919.264 10 0 60316 3600.00000 0 1026088.866 -11532640.524 -22694603.851 10 0 60316 4500.00000 0 3610441.108 -12506864.689 -21906975.367 10 0 60316 5400.00000 0 6002856.536 -13618062.385 -20692639.629 10 0 60316 6300.00000 0 8152017.775 -14820912.135 -19075508.985 10 0 60316 7200.00000 0 10016810.314 -16062664.787 -17087313.836 10 0 60316 8100.00000 0 11567767.676 -17285382.066 -14766962.892 10 0 60316 9000.00000 0 12788025.879 -18428407.614 -12159766.106 10 0 60316 9900.00000 0 13673750.332 -19430965.637 -9316536.833 10 0 60316 10800.00000 0 14234020.738 -20234777.350 -6292591.823 10 0 60316 11700.00000 0 14490182.245 -20786585.313 -3146669.369 10 0 60316 12600.00000 0 14474693.227 -21040480.058 60212.744 10 0 60316 13500.00000 0 14229520.932 -20959932.347 3265937.135 10 0 60316 14400.00000 0 13804154.491 -20519447.020 6408481.895 10 0 60316 15300.00000 0 13253320.163 -19705770.437 9427108.185 10 0 60316 16200.00000 0 12634495.480 -18518602.410 12263518.428 10 0 60316 17100.00000 0 12005326.491 -16970783.730 14862964.020 10 0 60316 18000.00000 0 11421055.770 -15087952.107 17175282.755 10 0 60316 18900.00000 0 10932067.926 -12907680.932 19155847.818 10 0 60316 19800.00000 0 10581653.999 -10478135.987 20766411.916 10 0 60316 20700.00000 0 10404086.986 -7856304.678 21975832.004 10 0 60316 21600.00000 0 10423087.867 -5105869.225 22760662.147 10 0 60316 22500.00000 0 10650745.687 -2294809.568 23105604.172 10 0 60316 23400.00000 0 11086936.867 507167.413 23003807.937 10 0 60316 24300.00000 0 11719268.781 3231268.663 22457015.354 10 0 60316 25200.00000 0 12523551.437 5812218.937 21475544.635 10 0 60316 26100.00000 0 13464779.628 8190722.188 20078113.674 10 0 60316 27000.00000 0 14498586.907 10315679.810 18291504.099 10 0 60316 27900.00000 0 15573113.110 12146074.408 16150070.201 10 0 60316 28800.00000 0 16631209.502 13652440.737 13695099.810 10 0 60316 29700.00000 0 17612890.949 14817861.878 10974037.116 10 0 60316 30600.00000 0 18457933.249 15638447.887 8039580.355 10 0 60316 31500.00000 0 19108506.620 16123275.409 4948670.275 10 0 60316 32400.00000 0 19511733.746 16293789.336 1761388.003 10 0 60316 33300.00000 0 19622062.944 16182690.432 -1460216.556 10 0 60316 34200.00000 0 19403353.919 15832355.004 -4653342.503 10 0 60316 35100.00000 0 18830585.222 15292853.190 -7755677.081 10 0 60316 36000.00000 0 17891108.170 14619650.158 -10706630.349 10 0 60316 36900.00000 0 16585391.297 13871088.696 -13448539.233 10 0 60316 37800.00000 0 14927221.266 13105761.547 -15927815.263 10 0 60316 38700.00000 0 12943349.685 12379886.904 -18096011.433 10 0 60316 39600.00000 0 10672599.369 11744800.462 -19910785.408 10 0 60316 40500.00000 0 8164467.066 11244672.363 -21336738.753 10 0 60316 41400.00000 0 5477281.381 10914547.357 -22346114.788 10 0 60316 42300.00000 0 2675993.873 10778792.320 -22919340.933 10 0 60316 43200.00000 0 -170303.222 10850017.253 -23045405.068 10 0 60316 44100.00000 0 -2991027.730 11128515.159 -22722059.098 10 0 60316 45000.00000 0 -5716815.048 11602243.620 -21955846.753 10 0 60316 45900.00000 0 -8282168.855 12247347.448 -20761956.357 10 0 60316 46800.00000 0 -10627944.448 13029198.586 -19163902.948 10 0 60316 47700.00000 0 -12703561.764 13903907.419 -17193047.520 10 0 60316 48600.00000 0 -14468857.169 14820239.835 -14887964.384 10 0 60316 49500.00000 0 -15895498.826 15721857.451 -12293670.447 10 0 60316 50400.00000 0 -16967909.165 16549785.164 -9460732.845 10 0 60316 51300.00000 0 -17683658.988 17245001.136 -6444273.425 10 0 60316 52200.00000 0 -18053320.019 17751039.700 -3302890.344 10 0 60316 53100.00000 0 -18099785.281 18016497.729 -97518.351 10 0 60316 54000.00000 0 -17857088.795 17997339.620 3109749.890 10 0 60316 54900.00000 0 -17368776.488 17658904.938 6256858.712 10 0 60316 55800.00000 0 -16685898.639 16977535.729 9282978.052 10 0 60316 56700.00000 0 -15864708.979 15941756.410 12129663.647 10 0 60316 57600.00000 0 -14964167.204 14552957.780 14741967.696 10 0 60316 58500.00000 0 -14043349.264 12825557.420 17069480.195 10 0 60316 59400.00000 0 -13158872.793 10786629.785 19067282.613 10 0 60316 60300.00000 0 -12362444.058 8475020.977 20696797.444 10 0 60316 61200.00000 0 -11698627.498 5939983.918 21926519.006 10 0 60316 62100.00000 0 -11202929.522 3239388.668 22732612.927 10 0 60316 63000.00000 0 -10900275.482 437579.723 23099373.871 10 0 60316 63900.00000 0 -10803942.857 -2397033.614 23019533.239 10 0 60316 64800.00000 0 -10914995.222 -5194556.954 22494410.880 10 0 60316 65700.00000 0 -11222241.432 -7886256.601 21533907.155 10 0 60316 66600.00000 0 -11702723.165 -10407164.213 20156334.171 10 0 60316 67500.00000 0 -12322712.378 -12698534.257 18388087.582 10 0 60316 68400.00000 0 -13039179.160 -14710053.413 16263163.018 10 0 60316 69300.00000 0 -13801670.713 -16401710.419 13822524.098 10 0 60316 70200.00000 0 -14554524.539 -17745248.088 11113331.839 10 0 60316 71100.00000 0 -15239324.254 -18725135.863 8188048.247 10 0 60316 72000.00000 0 -15797495.251 -19339020.708 5103429.848 10 0 60316 72900.00000 0 -16172930.566 -19597635.804 1919429.622 10 0 60316 73800.00000 0 -16314534.958 -19524169.285 -1301971.630 10 0 60316 74700.00000 0 -16178577.710 -19153118.348 -4497981.328 10 0 60316 75600.00000 0 -15730752.067 -18528676.407 -7606233.770 10 0 60316 76500.00000 0 -14947851.182 -17702721.364 -10566025.650 10 0 60316 77400.00000 0 -13818986.582 -16732490.746 -13319522.239 10 0 60316 78300.00000 0 -12346294.717 -15678043.401 -15812908.510 10 0 60316 79200.00000 0 -10545099.241 -14599616.917 -17997460.563 10 0 60316 80100.00000 0 -8443520.326 -13554994.671 -19830514.464 10 0 60316 81000.00000 0 -6081546.287 -12596995.920 -21276312.045 10 0 60316 81900.00000 0 -3509606.131 -11771196.808 -22306706.110 10 0 60316 82800.00000 0 -786703.161 -11113979.947 -22901710.756 10 0 60316 83700.00000 0 2021811.442 -10650995.545 -23049886.133 10 0 60316 84600.00000 0 4846730.968 -10396098.978 -22748550.667 10 0 60316 85500.00000 0 7617646.241 -10350808.841 -22003817.567 10 0 60317 0.00000 0 10265647.647 -10504306.830 -20830456.294 10 0 60317 900.00000 0 12725964.355 -10833977.658 -19251582.481 10 0 60317 1800.00000 0 14940427.321 -11306463.700 -17298185.571 10 0 60317 2700.00000 0 16859658.877 -11879187.821 -15008502.938 10 0 60317 3600.00000 0 18444895.485 -12502277.767 -12427255.626 10 0 60317 4500.00000 0 19669371.152 -13120809.047 -9604761.468 10 0 60317 5400.00000 0 20519206.111 -13677270.224 -6595944.121 10 0 60317 6300.00000 0 20993766.603 -14114145.737 -3459258.168 10 0 60317 7200.00000 0 21105483.814 -14376506.974 -255551.839 10 0 60317 8100.00000 0 20879142.503 -14414502.656 2953110.325 10 0 60317 9000.00000 0 20350671.762 -14185644.326 6104642.177 10 0 60317 9900.00000 0 19565490.693 -13656791.825 9138125.420 10 0 60317 10800.00000 0 18576479.662 -12805756.479 11994971.699 10 0 60317 11700.00000 0 17441662.762 -11622455.847 14620036.233 10 0 60317 12600.00000 0 16221698.330 -10109572.400 16962662.979 10 0 60317 13500.00000 0 14977281.685 -8282688.940 18977642.991 10 0 60317 14400.00000 0 13766567.452 -6169894.920 20626069.433 10 0 60317 15300.00000 0 12642717.391 -3810879.049 21876074.454 10 0 60317 16200.00000 0 11651674.391 -1255544.276 22703435.325 10 0 60317 17100.00000 0 10830253.958 1437799.588 23092039.264 10 0 60317 18000.00000 0 10204631.590 4204593.416 23034198.592 10 0 60317 18900.00000 0 9789288.603 6976450.042 22530810.145 10 0 60317 19800.00000 0 9586460.404 9683741.948 21591355.184 10 0 60317 20700.00000 0 9586111.079 12258250.848 20233738.501 10 0 60317 21600.00000 0 9766436.674 14635771.558 18483967.993 10 0 60317 22500.00000 0 10094877.947 16758563.606 16375678.622 10 0 60317 23400.00000 0 10529602.116 18577549.368 13949507.578 10 0 60317 24300.00000 0 11021393.359 20054167.125 11252330.300 10 0 60317 25200.00000 0 11515874.118 21161800.830 8336369.989 10 0 60317 26100.00000 0 11955964.604 21886725.351 5258196.232 10 0 60317 27000.00000 0 12284476.935 22228525.786 2077631.051 10 0 60317 27900.00000 0 12446733.608 22199971.379 -1143416.715 10 0 60317 28800.00000 0 12393098.031 21826347.643 -4342165.615 10 0 60317 29700.00000 0 12081307.717 21144273.675 -7456199.703 10 0 60317 30600.00000 0 11478508.547 20200053.917 -10424704.803 10 0 60317 31500.00000 0 10562900.877 19047634.157 -13189676.764 10 0 60317 32400.00000 0 9324924.758 17746248.926 -15697075.935 10 0 60317 33300.00000 0 7767931.352 16357861.145 -17897903.144 10 0 60317 34200.00000 0 5908309.895 14944504.037 -19749174.172 10 0 60317 35100.00000 0 3775063.219 13565639.502 -21214772.147 10 0 60317 36000.00000 0 1408848.775 12275646.325 -22266160.110 10 0 60317 36900.00000 0 -1139474.751 11121545.632 -22882939.307 10 0 60317 37800.00000 0 -3810733.889 10141060.346 -23053242.327 10 0 60317 38700.00000 0 -6539680.133 9361090.549 -22773953.946 10 0 60317 39600.00000 0 -9257488.290 8796668.341 -22050756.285 10 0 60317 40500.00000 0 -11894408.102 8450434.798 -20897998.708 10 0 60317 41400.00000 0 -14382457.766 8312659.069 -19338396.435 10 0 60317 42300.00000 0 -16658046.647 8361796.329 -17402565.366 10 0 60317 43200.00000 0 -18664418.071 8565558.372 -15128403.774 10 0 60317 44100.00000 0 -20353811.208 8882449.072 -12560334.425 10 0 60317 45000.00000 0 -21689253.331 9263697.435 -9748423.295 10 0 60317 45900.00000 0 -22645909.745 9655504.691 -6747393.227 10 0 60317 46800.00000 0 -23211937.510 10001509.089 -3615552.617 10 0 60317 47700.00000 0 -23388810.072 10245363.501 -413660.604 10 0 60317 48600.00000 0 -23191101.975 10333316.854 2796248.891 10 0 60317 49500.00000 0 -22645745.413 10216690.874 5952061.664 10 0 60317 50400.00000 0 -21790791.913 9854148.574 8992773.530 10 0 60317 51300.00000 0 -20673732.575 9213660.060 11859654.346 10 0 60317 52200.00000 0 -19349448.137 8274084.175 14497364.530 10 0 60317 53100.00000 0 -17877874.624 7026300.497 16855004.033 10 0 60317 54000.00000 0 -16321481.683 5473844.920 18887075.358 10 0 60317 54900.00000 0 -14742667.657 3633022.237 20554343.949 10 0 60317 55800.00000 0 -13201178.445 1532490.430 21824581.114 10 0 60317 56700.00000 0 -11751655.889 -787667.378 22673176.779 10 0 60317 57600.00000 0 -10441415.886 -3277346.821 23083611.377 10 0 60317 58500.00000 0 -9308547.201 -5878246.297 23047778.446 10 0 60317 59400.00000 0 -8380409.018 -8526038.385 22566151.741 10 0 60317 60300.00000 0 -7672589.232 -11152801.745 21647792.988 10 0 60317 61200.00000 0 -7188367.075 -13689615.585 20310198.866 10 0 60317 62100.00000 0 -6918703.250 -16069211.596 18578988.355 10 0 60317 63000.00000 0 -6842759.286 -18228575.162 16487434.243 10 0 60317 63900.00000 0 -6928926.043 -20111388.770 14075845.462 10 0 60317 64800.00000 0 -7136319.951 -21670216.080 11390809.746 10 0 60317 65700.00000 0 -7416685.695 -22868334.940 8484309.132 10 0 60317 66600.00000 0 -7716626.389 -23681141.314 5412723.706 10 0 60317 67500.00000 0 -7980067.632 -24097063.499 2235741.827 10 0 60317 68400.00000 0 -8150851.079 -24117946.121 -984802.433 10 0 60317 69300.00000 0 -8175346.651 -23758885.726 -4186141.649 10 0 60317 70200.00000 0 -8004970.893 -23047523.148 -7305812.568 10 0 60317 71100.00000 0 -7598502.217 -22022821.336 -10282893.107 10 0 60317 72000.00000 0 -6924092.009 -20733379.711 -13059212.632 10 0 60317 72900.00000 0 -5960883.317 -19235356.496 -15580509.717 10 0 60317 73800.00000 0 -4700165.675 -17590087.641 -17797512.581 10 0 60317 74700.00000 0 -3146014.642 -15861504.340 -19666919.109 10 0 60317 75600.00000 0 -1315387.078 -14113459.834 -21152255.722 10 0 60317 76500.00000 0 762333.220 -12407079.942 -22224597.234 10 0 60317 77400.00000 0 3046320.992 -10798250.558 -22863133.051 10 0 60317 78300.00000 0 5485784.674 -9335348.844 -23055568.671 10 0 60317 79200.00000 0 8021868.852 -8057314.022 -22798355.148 10 0 60317 80100.00000 0 10589903.413 -6992138.444 -22096742.958 10 0 60317 81000.00000 0 13121904.296 -6155841.222 -20964660.470 10 0 60317 81900.00000 0 15549220.431 -5551965.600 -19424420.853 10 0 60317 82800.00000 0 17805215.622 -5171618.748 -17506264.721 10 0 60317 83700.00000 0 19827873.230 -4994049.372 -15247749.043 10 0 60317 84600.00000 0 21562215.266 -4987735.810 -12692995.724 10 0 60317 85500.00000 0 22962435.822 -5111935.827 -9891815.944 10 0 60318 0.00000 0 23993661.224 -5318630.140 -6898728.757 10 0 60318 900.00000 0 24633265.871 -5554775.713 -3771892.332 10 0 60318 1800.00000 0 24871689.817 -5764771.979 -571973.364 10 0 60318 2700.00000 0 24712728.359 -5893035.484 2639028.495 10 0 60318 3600.00000 0 24173282.551 -5886573.979 5798974.500 10 0 60318 4500.00000 0 23282583.850 -5697451.935 8846777.845 10 0 60318 5400.00000 0 22080927.131 -5285044.506 11723569.514 10 0 60318 6300.00000 0 20617965.981 -4617986.172 14373817.619 10 0 60318 7200.00000 0 18950641.897 -3675733.204 16746380.145 10 0 60318 8100.00000 0 17140833.625 -2449675.303 18795472.626 10 0 60318 9000.00000 0 15252823.533 -943750.173 20481533.926 10 0 60318 9900.00000 0 13350685.106 825464.848 21771975.249 10 0 60318 10800.00000 0 11495698.344 2829188.909 22641799.511 10 0 60318 11700.00000 0 9743898.498 5027385.075 23074080.324 10 0 60318 12600.00000 0 8143858.184 7370181.948 23060292.045 10 0 60318 13500.00000 0 6734793.455 9799713.280 22600484.588 10 0 60318 14400.00000 0 5545071.506 12252302.258 21703299.032 10 0 60318 15300.00000 0 4591181.691 14660902.870 20385822.493 10 0 60318 16200.00000 0 3877212.899 16957699.743 18673283.262 10 0 60318 17100.00000 0 3394859.889 19076760.687 16598589.895 10 0 60318 18000.00000 0 3123959.626 20956633.045 14201720.741 10 0 60318 18900.00000 0 3033536.603 22542776.253 11528973.289 10 0 60318 19800.00000 0 3083314.829 23789728.819 8632085.663 10 0 60318 20700.00000 0 3225634.089 24662917.888 5567245.543 10 0 60318 21600.00000 0 3407690.466 25140033.810 2394004.604 10 0 60318 22500.00000 0 3574006.542 25211909.769 -825880.936 10 0 60318 23400.00000 0 3669026.098 24882867.144 -4029660.730 10 0 60318 24300.00000 0 3639721.925 24170509.862 -7154827.171 10 0 60318 25200.00000 0 3438104.053 23104974.697 -10140353.029 10 0 60318 26100.00000 0 3023519.357 21727667.999 -12927903.684 10 0 60318 27000.00000 0 2364642.126 20089541.787 -15462998.112 10 0 60318 27900.00000 0 1441068.274 18248982.282 -17696093.769 10 0 60318 28800.00000 0 244443.014 16269400.939 -19583572.140 10 0 60318 29700.00000 0 -1220927.954 14216630.940 -21088604.113 10 0 60318 30600.00000 0 -2938011.148 12156240.416 -22181877.114 10 0 60318 31500.00000 0 -4877525.719 10150877.024 -22842169.210 10 0 60318 32400.00000 0 -6998951.593 8257756.716 -23056758.948 10 0 60318 33300.00000 0 -9252022.693 6526402.819 -22821663.407 10 0 60318 34200.00000 0 -11578641.799 4996730.279 -22141700.714 10 0 60318 35100.00000 0 -13915135.798 3697554.564 -21030377.073 10 0 60318 36000.00000 0 -16194755.849 2645586.102 -19509601.959 10 0 60318 36900.00000 0 -18350316.949 1844950.093 -17609238.627 10 0 60318 37800.00000 0 -20316865.957 1287248.942 -15366500.291 10 0 60318 38700.00000 0 -22034266.417 952161.473 -12825205.282 10 0 60318 39600.00000 0 -23449592.551 808550.440 -10034907.098 10 0 60318 40500.00000 0 -24519233.337 816028.649 -7049917.495 10 0 60318 41400.00000 0 -25210620.185 926915.002 -3928242.550 10 0 60318 42300.00000 0 -25503507.897 1088495.950 -730453.083 10 0 60318 43200.00000 0 -25390757.519 1245495.572 2481488.346 10 0 60318 44100.00000 0 -24878590.557 1342649.422 5645421.145 10 0 60318 45000.00000 0 -23986306.175 1327273.651 8700178.477 10 0 60318 45900.00000 0 -22745474.892 1151721.693 11586754.878 10 0 60318 46800.00000 0 -21198643.634 775626.085 14249428.386 10 0 60318 47700.00000 0 -19397606.967 167832.226 16636817.052 10 0 60318 48600.00000 0 -17401316.243 -692056.054 18702851.171 10 0 60318 49500.00000 0 -15273513.087 -1812583.257 20407644.415 10 0 60318 50400.00000 0 -13080184.331 -3189846.768 21718248.883 10 0 60318 51300.00000 0 -10886942.154 -4807424.616 22609281.083 10 0 60318 52200.00000 0 -8756436.125 -6636830.674 23063408.007 10 0 60318 53100.00000 0 -6745902.440 -8638480.242 23071684.648 10 0 60318 54000.00000 0 -4904950.125 -10763128.388 22633736.546 10 0 60318 54900.00000 0 -3273674.549 -12953724.159 21757783.283 10 0 60318 55800.00000 0 -1881175.709 -15147606.648 20460501.270 10 0 60318 56700.00000 0 -744542.576 -17278954.562 18766726.713 10 0 60318 57600.00000 0 131653.864 -19281389.900 16709002.280 10 0 60318 58500.00000 0 755336.813 -21090629.130 14326973.847 10 0 60318 59400.00000 0 1146368.881 -22647072.317 11666646.547 10 0 60318 60300.00000 0 1335488.149 -23898222.138 8779512.282 10 0 60318 61200.00000 0 1362778.486 -24800830.690 5721563.865 10 0 60318 62100.00000 0 1275737.592 -25322682.448 2552213.697 10 0 60318 63000.00000 0 1127023.907 -25443936.311 -666862.510 10 0 60318 63900.00000 0 971977.935 -25157967.716 -3872934.204 10 0 60318 64800.00000 0 866024.013 -24471672.834 -7003452.160 10 0 60318 65700.00000 0 862064.405 -23405219.760 -9997286.732 10 0 60318 66600.00000 0 1007978.591 -21991255.475 -12795942.004 10 0 60318 67500.00000 0 1344336.527 -20273600.992 -15344719.959 10 0 60318 68400.00000 0 1902425.719 -18305489.453 -17593809.726 10 0 60318 69300.00000 0 2702678.401 -16147421.892 -19499278.585 10 0 60318 70200.00000 0 3753567.787 -13864732.009 -21023943.737 10 0 60318 71100.00000 0 5051021.872 -11524963.771 -22138106.660 10 0 60318 72000.00000 0 6578380.711 -9195173.599 -22820135.058 10 0 60318 72900.00000 0 8306899.468 -6939271.688 -23056881.021 10 0 60318 73800.00000 0 10196775.942 -4815514.866 -22843927.657 10 0 60318 74700.00000 0 12198658.702 -2874256.348 -22185660.305 10 0 60318 75600.00000 0 14255571.504 -1156046.151 -21095162.143 10 0 60318 76500.00000 0 16305172.120 309839.616 -19593937.703 10 0 60318 77400.00000 0 18282249.720 1506381.024 -17711471.256 10 0 60318 78300.00000 0 20121355.306 2429269.725 -15484630.279 10 0 60318 79200.00000 0 21759454.488 3086821.628 -12956927.182 10 0 60318 80100.00000 0 23138491.449 3499353.873 -10177655.079 10 0 60318 81000.00000 0 24207757.259 3698055.737 -7200915.690 10 0 60318 81900.00000 0 24925964.377 3723404.067 -4084559.184 10 0 60318 82800.00000 0 25262941.948 3623192.587 -889057.343 10 0 60318 83700.00000 0 25200882.739 3450260.069 2323667.820 10 0 60318 84600.00000 0 24735091.492 3260014.360 5491437.268 10 0 60318 85500.00000 0 23874205.362 3107857.098 8553007.321 99